Wind_Speed
31 35 43 44 42 43 43 44 47 45 38 37 40 42 45 46 47 48 48 49 50 50 49 47 48 49 50 51 50 48 47 46 43 42 42 42 42 42 42 42 42 42 42 41 41 40 39 38 39 40 40 39 39 39 39 39 39 37 36 37 39 42 45 46 47 41 31 27 23 23 25 26 27 28 31 32 31 29 27 26 24 23 24 25 25
32 35 39 40 42 44 43 41 44 46 42 39 39 40 41 43 45 46 46 48 50 49 48 47 48 49 49 50 50 48 48 47 45 45 45 45 44 43 42 42 43 42 42 42 43 43 42 41 41 41 41 41 41 41 41 40 39 37 38 41 43 45 47 48 48 41 33 31 28 27 29 31 31 31 33 33 33 31 31 30 27 27 27 27 27
34 36 39 40 42 44 43 42 42 45 47 46 45 43 41 41 41 41 43 45 46 48 48 48 49 50 49 48 49 49 49 49 48 47 47 47 46 44 43 42 42 42 42 44 46 46 46 45 44 44 45 45 45 44 42 40 39 40 42 45 47 48 50 49 48 41 34 32 32 31 33 36 36 34 34 36 36 34 32 32 31 30 30 30 28
38 40 43 45 47 47 45 44 44 45 45 45 46 46 44 43 40 38 40 43 45 47 49 51 51 50 48 48 49 48 47 47 47 47 48 49 49 48 46 45 44 43 43 45 46 45 44 43 44 44 45 44 44 43 41 41 41 43 46 48 49 50 49 46 42 38 36 34 33 34 37 39 40 39 37 37 38 37 35 34 34 33 34 34 33
45 45 45 47 50 49 45 43 43 44 43 41 43 44 43 44 43 41 41 43 44 44 46 48 50 48 46 46 45 44 41 41 43 46 47 49 49 49 48 48 47 46 45 45 44 42 40 40 40 40 40 40 41 41 42 43 44 46 48 48 48 46 44 41 38 37 37 37 36 36 38 39 40 40 40 39 39 39 38 38 37 37 39 40 39
46 47 48 48 48 47 44 42 40 40 42 42 41 41 41 43 45 44 44 44 44 42 42 46 47 46 44 43 42 41 40 41 43 44 45 45 45 46 47 47 46 46 45 45 43 41 39 38 37 37 37 39 40 42 43 45 45 45 44 43 43 42 40 38 37 37 38 39 40 40 40 40 40 40 41 41 41 42 42 42 42 42 42 43 44
45 45 45 46 46 47 47 45 41 38 40 42 42 41 40 41 42 43 44 45 45 43 42 45 46 44 42 42 41 40 41 42 43 43 43 43 43 43 44 45 45 46 46 46 45 43 41 40 39 39 39 40 42 43 44 43 40 39 39 40 41 40 38 37 37 38 39 40 41 42 42 43 43 43 43 43 43 44 45 46 46 46 46 47 48
42 42 42 43 44 48 50 48 44 41 41 43 43 41 39 39 41 42 43 44 46 45 44 45 46 44 42 41 39 39 39 40 40 40 40 40 40 41 42 42 43 44 45 46 46 44 42 41 40 40 41 42 43 43 40 37 35 36 38 39 39 37 36 36 37 38 40 41 42 43 44 45 45 45 45 45 46 46 47 49 50 50 50 51 52
40 40 39 39 42 47 50 49 46 45 45 45 45 42 40 39 40 41 42 43 45 46 46 46 46 45 44 43 41 40 40 40 40 41 41 41 41 41 41 41 41 42 42 42 42 41 40 40 39 39 39 39 38 37 34 33 34 36 38 37 36 34 33 35 37 38 40 42 43 43 44 45 46 47 47 48 48 49 50 52 53 54 55 56 57
36 37 36 35 39 44 46 47 47 46 46 46 44 42 40 39 40 40 42 44 45 46 46 47 47 47 46 47 47 47 47 45 44 44 44 44 43 42 41 41 40 39 38 38 37 37 37 37 37 36 35 34 33 31 31 32 34 36 37 36 33 31 32 33 35 36 38 41 43 45 46 46 47 48 49 50 51 52 53 55 56 57 58 58 59
32 34 35 35 38 41 42 45 47 47 46 45 43 42 41 41 41 41 41 43 45 47 47 47 47 48 48 48 49 51 52 52 50 49 47 46 45 44 43 41 40 39 37 37 37 37 37 37 37 36 34 32 30 29 31 33 34 36 36 33 30 28 29 30 30 30 31 33 37 40 42 43 45 46 48 49 50 51 51 52 52 52 52 53 53
33 36 38 38 40 41 41 43 46 48 49 46 44 42 42 40 40 40 40 41 44 46 49 49 50 50 50 51 50 50 51 52 52 51 48 47 46 45 45 43 42 41 41 40 39 38 38 38 37 35 32 30 29 30 33 34 35 35 33 30 27 27 27 27 27 27 28 30 32 35 36 38 40 41 43 44 43 42 41 40 40 40 40 41 42
36 40 41 40 42 42 42 42 44 47 49 48 45 44 43 41 40 41 42 44 45 47 49 52 53 53 52 52 52 51 51 51 51 50 48 46 45 44 44 43 42 42 42 41 40 39 38 37 36 34 32 31 31 33 35 36 36 35 32 28 26 27 28 29 29 30 32 34 36 37 36 36 35 35 36 36 35 34 32 30 29 28 27 29 31
35 41 43 42 43 43 41 41 40 42 44 45 44 43 43 43 43 44 45 46 47 48 49 51 54 56 55 54 53 52 51 50 50 49 48 46 44 43 42 41 40 39 40 40 39 38 37 36 35 34 34 34 36 38 39 39 39 37 34 29 27 26 27 29 30 32 33 34 35 35 34 32 32 32 33 33 31 29 29 28 26 23 21 22 24
33 37 40 41 42 40 38 37 37 37 37 38 40 41 43 45 47 48 49 48 47 47 49 50 52 55 56 56 54 53 51 50 49 49 48 46 44 43 41 40 39 38 39 40 40 39 37 37 37 38 38 39 40 41 42 42 41 40 37 33 30 28 29 30 32 31 31 30 31 32 32 32 32 33 34 34 32 30 29 29 27 24 21 20 21
31 33 36 39 41 39 36 36 36 32 30 31 34 38 41 43 46 48 50 50 49 47 47 50 51 51 53 55 55 54 51 50 50 49 49 49 47 45 43 42 40 38 38 39 40 40 40 40 40 40 41 41 42 43 43 43 42 40 39 37 35 33 34 35 35 34 33 33 32 32 33 35 35 34 34 35 35 34 33 32 31 28 25 23 23
31 33 35 39 40 39 36 36 35 29 24 27 33 38 41 42 43 45 46 47 47 45 45 48 49 49 49 51 53 54 53 51 50 50 50 51 51 50 48 46 44 42 40 40 41 42 43 43 42 42 43 44 44 45 45 43 42 40 39 38 38 38 39 40 40 39 38 38 37 37 37 38 37 37 35 35 36 37 38 37 36 35 33 32 31
32 33 36 38 39 38 35 33 32 25 22 27 35 42 46 48 48 49 49 48 46 44 44 46 48 49 49 50 51 53 54 54 53 51 51 51 52 52 52 51 49 48 47 46 45 46 46 46 46 46 47 47 47 47 46 45 43 41 40 40 40 41 42 43 43 44 43 43 42 41 40 39 39 38 38 37 37 38 40 41 41 40 39 39 39
33 35 36 38 38 37 33 30 27 20 17 23 31 39 46 51 53 54 54 51 47 44 43 44 46 49 50 50 50 51 53 54 54 54 53 53 53 53 53 53 53 52 52 52 51 51 51 51 51 51 51 51 50 49 47 45 44 43 43 43 44 45 46 46 47 47 46 45 44 44 43 41 40 40 40 40 39 39 40 42 43 43 42 41 41
33 35 35 35 35 33 31 28 23 16 14 20 26 35 44 47 47 50 51 50 48 46 45 45 46 48 50 51 50 51 51 52 53 53 54 55 55 54 53 53 53 53 53 54 54 53 53 53 54 54 54 53 52 51 49 48 47 47 47 47 48 49 49 50 49 49 48 47 46 45 44 43 42 42 42 42 41 41 41 42 44 44 44 43 42
34 34 34 33 30 27 27 27 22 16 16 22 27 36 46 47 45 49 52 51 50 50 49 48 48 48 49 50 50 50 50 50 51 51 52 54 55 56 55 54 53 53 53 54 54 53 54 54 54 55 55 55 54 54 53 52 51 51 50 50 51 51 52 51 50 50 49 47 47 46 46 45 44 45 45 44 44 43 42 43 44 44 44 44 40
35 35 35 34 31 29 28 26 24 23 24 27 30 39 48 50 49 50 50 49 50 50 50 49 49 49 49 48 47 47 49 49 49 50 51 53 54 55 55 55 54 53 53 53 52 52 52 53 53 55 56 56 57 56 56 55 54 53 53 53 53 54 53 51 50 49 48 48 48 47 47 47 47 47 47 47 46 46 45 45 45 44 43 39 33
37 38 39 37 35 34 31 26 26 30 35 38 38 42 46 47 47 47 47 47 46 44 43 43 47 51 52 51 48 46 47 47 48 49 49 51 54 55 55 55 55 54 54 53 52 51 52 53 54 55 55 56 57 57 57 55 54 54 54 54 55 53 51 48 47 48 49 49 48 48 47 48 48 49 50 51 51 50 48 47 45 42 37 32 30
39 42 43 41 40 38 33 31 30 33 38 42 43 44 44 43 43 43 44 43 38 35 35 36 40 46 50 51 50 47 45 45 46 46 46 48 51 53 55 55 55 55 55 54 54 53 52 53 54 54 54 55 55 55 55 53 53 53 54 54 53 50 48 48 49 50 49 48 48 48 49 50 51 52 53 54 53 50 47 44 40 35 33 33 36
39 43 45 44 44 43 40 39 37 35 38 42 45 47 47 46 46 42 40 38 35 36 39 41 44 47 48 50 51 49 48 47 46 46 46 48 51 53 54 53 53 53 53 53 53 51 50 50 51 52 53 54 54 55 55 55 55 55 55 54 53 52 52 53 54 54 51 49 49 50 52 53 54 54 54 51 47 44 41 39 38 37 38 41 44
40 44 48 48 49 50 50 50 48 47 48 51 53 55 56 55 55 53 52 50 49 50 50 49 51 52 51 52 53 52 52 52 51 52 53 53 52 52 53 53 52 51 50 50 49 48 48 49 50 53 54 56 56 56 56 57 57 57 57 56 56 58 59 60 58 56 53 52 53 55 56 56 55 54 52 47 43 41 40 42 45 46 47 48 49
45 47 52 55 56 58 59 60 61 62 62 63 63 64 65 65 65 64 63 61 58 56 53 51 52 52 51 51 52 53 54 55 56 56 57 55 51 51 54 53 52 51 50 49 49 49 49 50 53 56 57 58 57 57 57 58 59 60 60 61 62 63 62 60 57 55 54 55 57 58 57 55 53 52 51 48 45 44 46 49 52 53 53 54 55
48 50 54 59 62 63 64 64 67 69 70 70 70 70 70 70 70 67 64 62 60 57 53 50 49 50 51 51 51 52 53 54 55 56 56 55 54 53 54 53 52 51 51 51 52 52 53 53 56 58 58 59 59 60 60 60 61 61 60 60 60 58 56 53 52 51 53 55 56 56 55 52 50 49 50 51 51 50 51 54 56 57 58 59 60
49 50 52 56 59 62 63 65 68 70 71 71 71 70 69 68 67 64 62 62 61 58 55 52 50 50 50 49 50 51 52 52 53 53 54 55 56 56 54 54 54 53 54 54 55 58 59 60 60 61 62 64 64 64 63 61 59 57 57 56 56 55 53 51 50 50 52 52 52 53 52 51 50 50 50 52 55 57 59 60 60 60 62 64 65
50 50 51 52 53 54 57 61 65 68 71 72 70 68 68 66 65 64 62 60 58 55 54 54 53 52 52 51 51 52 54 54 54 53 52 53 55 56 55 56 57 56 56 56 57 60 63 64 65 66 67 68 66 64 62 61 58 57 57 58 58 57 55 52 51 51 53 53 53 53 52 50 49 50 51 53 57 60 63 64 65 66 67 69 70
52 52 52 52 52 52 53 55 60 64 68 70 69 69 68 66 64 63 59 55 53 52 53 54 54 53 52 53 53 53 55 56 56 56 55 54 54 55 55 57 58 58 58 58 59 61 63 64 65 64 63 63 62 61 61 61 60 60 60 60 59 58 57 55 54 53 54 55 55 54 54 53 50 50 53 56 59 61 65 67 69 70 72 73 73
51 53 54 52 52 53 53 53 57 60 63 65 66 66 67 64 60 57 56 55 54 54 55 55 54 53 52 52 52 52 53 53 54 55 55 54 54 55 55 56 56 56 57 59 60 60 61 62 61 60 60 59 58 58 58 59 59 58 59 59 58 57 58 59 59 57 56 56 57 56 58 61 59 58 61 64 65 66 69 71 72 74 76 76 75
51 54 55 54 53 53 52 52 55 58 60 62 62 61 61 59 56 54 55 56 58 60 60 58 57 55 54 53 53 51 51 52 53 54 54 54 53 54 55 55 54 53 54 56 57 58 60 61 61 60 61 62 60 58 58 58 59 59 59 59 59 59 60 62 64 62 59 58 60 63 66 69 68 66 68 69 70 71 73 74 74 76 79 79 77
53 54 56 57 55 53 52 53 54 55 57 59 59 59 59 58 58 58 58 60 62 63 62 60 59 58 56 55 54 51 50 53 54 55 56 56 54 55 55 54 54 54 54 55 57 59 60 61 62 62 62 63 63 62 61 61 61 61 60 60 60 61 62 64 64 63 63 64 68 72 73 72 71 70 70 70 71 73 75 76 76 79 81 81 79
56 56 57 59 59 57 57 57 57 55 55 57 58 59 60 61 60 61 62 63 63 62 61 60 58 57 56 56 56 53 52 54 56 56 57 58 58 57 56 54 54 56 57 59 61 63 64 66 68 68 66 65 65 65 65 65 65 65 64 63 63 63 64 65 66 67 70 73 76 77 75 73 72 72 72 72 72 74 75 76 79 82 83 83 82
58 59 59 60 62 63 62 61 61 61 61 60 59 59 62 63 63 62 62 62 61 60 59 59 58 56 55 55 56 56 56 58 59 57 57 58 60 60 59 57 58 61 64 67 68 69 70 71 72 73 72 71 70 69 69 68 68 69 69 67 67 68 70 71 72 73 75 76 76 76 74 72 72 72 72 73 73 74 76 80 84 86 86 86 87
61 62 62 63 65 68 68 66 66 69 69 66 64 63 64 65 66 65 63 62 62 61 60 60 59 57 55 55 55 56 58 60 63 62 59 59 61 63 65 65 66 68 71 74 75 75 76 77 77 77 76 75 75 74 73 73 72 72 71 70 71 74 75 76 77 77 77 77 77 76 74 74 74 74 75 76 76 78 82 85 88 88 89 90 91
65 66 67 68 69 71 71 70 71 74 74 72 69 69 69 69 70 69 67 65 64 63 62 61 61 60 60 61 61 61 61 63 65 66 65 65 65 67 69 71 72 73 74 76 77 77 78 79 80 80 80 78 78 77 78 78 78 77 76 76 77 79 81 81 81 80 80 79 79 79 78 78 78 79 79 80 82 84 86 88 89 90 92 92 93
68 68 69 71 72 73 73 72 73 76 78 77 75 74 73 72 73 73 72 70 69 68 67 67 67 69 71 74 75 75 73 73 72 71 71 72 72 71 72 72 73 74 75 75 75 75 76 77 78 79 81 81 81 81 82 82 83 84 83 83 84 85 87 87 87 85 85 84 84 83 82 82 81 81 81 83 85 88 89 91 92 93 94 94 94
70 71 72 74 75 75 76 76 77 78 79 80 79 78 77 77 78 78 78 77 77 77 78 77 78 81 83 85 86 85 84 83 82 81 79 79 79 78 77 77 76 77 76 76 75 75 74 75 76 77 79 81 82 83 84 85 87 88 89 90 90 91 92 92 92 92 92 91 90 88 87 87 86 86 88 90 92 94 95 95 95 94 92 92 91
69 72 74 76 77 78 79 80 81 82 82 82 83 83 82 83 84 83 83 84 85 86 86 88 89 90 90 89 88 86 85 85 85 85 85 85 86 86 85 85 85 85 84 82 80 78 78 78 80 80 81 83 84 85 86 88 90 91 92 93 94 95 95 96 97 97 97 96 95 95 95 95 95 95 96 96 96 96 95 94 92 91 89 88 87
65 68 71 73 75 77 79 80 82 83 84 84 84 85 85 85 85 86 86 88 88 89 90 92 92 91 89 87 85 83 81 80 80 81 83 84 86 88 88 90 91 92 92 92 90 89 89 90 91 92 93 93 93 93 94 95 96 97 98 98 98 98 98 99 100 100 100 101 101 100 100 99 98 98 97 96 95 93 92 90 89 87 87 86 86
64 65 68 69 71 73 75 77 79 81 82 83 84 85 85 85 85 86 87 87 88 89 90 90 90 89 87 86 84 82 80 78 77 77 78 80 82 84 84 85 86 88 90 92 93 94 95 97 97 98 98 98 98 98 99 101 102 102 102 102 102 101 101 101 101 101 101 100 100 99 98 97 96 95 94 93 92 91 90 89 88 87 87 87 86
68 67 68 70 71 72 74 76 77 79 81 82 84 85 86 86 86 86 87 87 87 87 88 88 88 88 87 87 86 84 83 82 80 78 78 79 81 82 83 82 82 82 83 84 87 89 91 93 95 96 96 97 97 98 100 101 102 103 103 103 103 101 100 100 99 99 98 96 94 93 93 92 92 91 90 90 90 90 90 90 90 89 89 88 88
70 71 71 72 73 74 75 75 76 78 79 81 82 83 84 85 85 86 86 87 87 87 87 87 87 87 87 87 87 86 85 84 83 82 81 81 82 83 84 83 83 83 83 83 84 84 84 86 88 90 92 93 95 97 98 99 100 100 101 100 99 98 97 96 96 96 95 93 91 90 90 90 90 90 89 89 89 90 90 91 91 91 91 91 90
73 74 75 76 76 77 77 77 78 78 80 81 81 82 83 84 85 85 85 86 86 86 86 86 86 86 87 87 87 87 87 86 86 85 85 84 84 85 85 85 85 85 86 86 86 86 84 83 84 86 88 89 91 92 94 96 97 97 98 97 97 96 96 95 95 95 94 93 92 91 91 91 91 91 91 90 90 91 91 92 92 92 92 92 92
76 78 79 79 79 79 80 80 81 82 82 83 83 84 84 85 85 86 86 86 86 86 86 86 86 87 87 88 88 88 88 88 88 88 88 88 88 88 88 87 87 86 87 87 87 87 86 84 84 86 88 88 87 88 90 92 92 94 95 96 96 95 95 95 96 95 95 94 93 93 92 92 92 92 92 92 91 92 92 92 93 93 93 93 93
80 81 82 83 82 82 82 83 84 84 85 86 86 87 87 87 88 88 88 88 88 88 88 89 89 88 88 89 89 89 90 90 90 91 91 91 91 91 91 90 90 90 89 89 89 89 88 87 87 88 90 89 86 87 89 89 89 92 94 95 95 95 96 96 97 96 95 94 94 93 92 92 91 91 92 92 92 92 92 92 92 92 91 91 91
83 83 84 85 85 85 86 86 87 87 88 88 89 90 90 91 91 92 92 92 91 92 92 92 92 92 92 92 92 92 92 91 92 93 93 94 94 94 93 93 93 93 93 92 92 92 92 92 91 91 92 92 92 93 92 89 87 90 94 94 95 96 98 99 98 97 96 94 93 92 91 91 91 91 92 91 91 90 90 90 89 88 88 88 88
85 85 86 87 89 89 89 90 90 90 91 91 92 93 94 94 95 96 96 96 96 96 96 96 95 95 95 95 95 94 94 94 94 95 95 96 97 97 96 95 96 96 95 95 95 94 94 94 94 94 94 94 95 97 96 93 91 92 94 96 96 97 100 102 101 99 96 93 91 91 90 90 90 90 90 89 88 87 87 86 86 86 86 86 86
87 87 88 89 90 91 92 92 93 93 94 94 95 95 96 96 97 98 98 98 98 98 98 97 97 97 97 96 96 95 95 95 95 95 95 96 97 97 97 96 96 96 97 96 96 96 95 95 95 95 95 95 96 97 97 97 95 95 96 97 98 99 101 102 102 100 96 92 92 91 90 88 86 86 85 84 83 83 83 83 83 83 84 85 84
Wind_Direction
262 260 262 261 256 252 251 246 244 248 251 250 251 253 255 256 259 262 262 260 260 262 262 262 265 265 263 264 267 269 268 269 269 267 267 269 272 273 270 267 267 269 270 270 270 268 267 266 265 265 267 269 274 278 280 280 279 279 280 284 289 295 299 301 307 303 281 264 248 229 220 221 227 232 236 240 243 243 242 245 251 255 260 264 268
244 240 250 256 253 250 251 249 246 246 246 247 252 255 257 260 262 264 265 263 260 259 259 262 265 266 266 264 265 267 267 267 267 268 269 272 274 274 270 268 267 266 266 266 266 267 268 269 267 267 268 270 274 277 279 278 277 278 282 287 291 296 301 302 304 298 276 263 253 232 219 219 226 230 234 239 242 245 246 248 249 253 260 265 268
238 231 237 245 247 247 246 247 250 249 247 248 251 254 256 260 262 262 263 263 259 257 259 263 265 266 266 265 265 265 265 265 265 267 269 271 273 273 271 270 269 268 266 265 265 267 270 271 270 270 271 272 275 276 277 276 277 281 285 288 292 297 300 300 299 290 270 259 253 240 228 226 229 231 234 239 242 245 248 250 253 256 261 267 269
236 231 235 241 244 246 245 246 249 250 250 250 250 253 256 257 258 258 259 260 259 259 261 264 265 265 265 265 265 265 265 265 264 265 268 269 270 270 270 271 272 272 270 268 268 270 273 273 273 272 273 273 275 275 276 277 280 284 288 291 294 296 297 295 291 281 266 257 252 243 236 233 233 235 237 240 243 248 251 254 258 261 263 265 268
237 235 237 241 245 246 244 246 248 248 248 251 252 254 256 255 254 256 258 259 261 262 261 262 264 265 265 265 263 263 263 264 264 266 267 268 269 269 269 270 271 272 271 271 272 274 274 273 273 272 273 273 274 275 277 280 284 288 291 294 295 294 293 290 283 274 265 259 255 249 243 240 239 239 241 243 247 251 255 257 261 265 267 268 269
243 242 241 243 246 245 241 241 245 246 246 249 253 255 259 259 256 256 257 258 260 262 259 258 262 264 265 264 261 258 258 260 263 266 267 268 270 270 269 269 269 269 270 271 273 274 274 273 272 271 271 272 274 276 279 284 288 291 293 293 292 291 289 286 278 271 266 261 258 256 254 252 250 248 248 250 252 255 258 260 262 265 268 270 272
247 247 246 246 247 244 241 239 240 243 245 246 249 253 257 259 258 257 257 256 258 259 258 257 260 262 263 262 259 257 257 258 262 265 267 269 270 270 269 268 268 267 268 270 271 272 272 272 272 271 272 274 276 278 281 286 290 292 293 291 288 287 284 281 275 268 266 265 263 261 260 259 258 257 255 255 256 258 261 262 264 265 268 272 274
247 248 247 246 245 243 242 240 238 239 241 242 246 251 253 255 257 257 257 257 256 257 257 257 257 258 257 257 256 256 258 260 263 266 269 271 271 270 269 268 268 268 268 268 269 269 270 270 271 272 273 275 276 279 283 287 292 294 294 290 285 283 280 277 274 268 265 266 267 266 265 264 263 262 261 260 260 262 265 267 269 270 272 274 276
248 248 246 244 243 242 241 239 237 237 239 242 247 251 252 254 256 256 255 256 256 256 256 255 255 255 254 253 253 255 258 261 264 266 269 271 272 271 270 269 268 269 269 267 267 267 267 269 270 271 273 275 277 281 285 290 294 298 297 291 284 280 277 276 274 270 266 265 267 269 269 268 267 267 267 267 268 269 271 273 275 275 276 276 277
247 245 244 243 241 240 240 238 237 237 240 244 247 249 251 255 257 256 255 256 256 256 255 254 254 256 255 253 253 255 259 262 263 266 269 272 273 272 271 270 271 270 269 267 266 265 266 267 268 270 272 275 279 283 287 291 296 301 300 290 281 277 276 275 274 272 269 267 267 269 270 270 270 271 272 272 273 274 275 277 278 278 278 277 276
241 239 237 237 237 237 238 238 237 237 240 245 247 249 252 256 256 256 257 257 256 255 255 254 254 254 256 256 255 256 258 260 262 266 271 272 273 273 272 273 273 271 268 268 268 267 267 267 268 270 272 275 279 282 286 291 298 304 300 288 278 276 276 275 274 272 271 270 269 269 269 270 270 271 272 273 273 275 276 277 277 277 277 276 275
231 229 229 230 233 235 238 239 238 237 239 244 247 251 254 256 256 257 259 261 259 256 256 256 254 253 253 254 255 256 257 258 260 265 269 271 272 272 273 273 273 270 267 268 269 269 269 269 269 270 271 272 274 278 284 291 298 303 299 286 276 273 273 271 269 269 270 272 272 271 270 269 270 271 271 272 272 273 273 273 274 276 277 278 277
226 225 226 228 231 235 238 240 240 239 240 243 248 253 254 255 257 261 265 268 266 261 258 257 256 255 254 254 254 256 257 258 260 263 267 269 269 270 271 272 272 269 267 267 268 267 267 267 267 268 268 269 273 279 284 289 295 299 295 285 274 270 271 269 269 271 273 275 275 273 270 268 270 271 270 269 268 267 267 267 269 273 278 281 281
224 225 227 229 232 236 239 243 245 244 242 244 249 253 255 258 262 266 270 272 270 266 262 259 257 256 256 256 257 258 259 260 261 263 264 266 267 268 269 270 270 268 266 265 264 262 262 263 264 265 267 271 276 280 284 287 291 293 291 284 275 270 270 272 275 277 278 278 278 273 268 267 271 272 269 266 263 262 263 264 264 266 272 277 281
225 227 230 231 233 236 239 243 246 246 245 249 254 257 259 262 266 269 271 273 272 269 265 262 260 259 258 258 259 261 261 262 262 262 263 264 266 268 268 268 268 267 265 262 260 258 258 262 265 267 269 273 277 280 283 285 288 289 287 282 276 271 270 274 279 281 281 281 281 276 271 272 277 278 274 268 264 264 266 267 266 264 265 269 276
229 231 232 233 235 235 237 239 241 243 249 257 263 266 266 265 266 269 270 271 272 270 266 264 263 262 261 260 260 262 263 263 263 263 263 264 266 268 268 266 266 267 266 263 258 256 259 264 266 268 270 272 275 278 280 282 284 284 282 278 275 272 272 276 280 281 281 281 282 280 278 279 282 283 280 274 267 266 269 270 270 271 271 271 274
225 227 229 232 234 232 233 235 238 246 260 273 280 280 275 271 268 269 271 272 272 270 267 265 265 265 263 261 261 261 262 263 263 264 264 265 266 267 267 266 265 265 266 265 261 260 262 265 266 268 270 271 273 275 278 280 281 280 277 274 272 271 273 276 279 281 282 282 282 283 283 283 283 283 282 279 273 270 271 273 274 276 278 280 280
219 220 223 227 229 230 231 234 240 255 277 289 292 287 279 275 271 270 272 273 272 271 268 266 266 265 264 262 261 261 261 262 263 264 264 265 265 265 266 265 265 265 266 266 266 266 267 267 268 269 270 271 273 275 277 278 278 276 273 270 269 270 273 275 278 280 283 284 284 284 284 284 283 283 282 281 279 276 275 275 276 277 280 283 285
217 216 217 221 224 228 232 234 243 265 288 289 289 285 278 275 274 273 273 273 271 269 268 267 266 266 265 264 262 261 260 261 262 263 265 265 265 265 265 265 265 266 266 268 268 269 269 269 270 270 270 271 272 274 275 276 275 274 271 270 270 271 273 276 278 281 283 284 284 284 284 283 281 282 283 282 282 280 279 279 279 279 280 281 283
218 216 216 220 222 227 232 234 243 268 277 267 272 276 274 273 272 270 271 271 270 269 270 270 269 267 266 265 264 262 261 261 261 262 263 264 265 266 266 266 267 267 267 268 268 269 270 270 270 271 271 271 272 273 273 273 273 273 272 271 272 273 274 277 279 281 282 283 284 283 283 281 280 281 282 283 283 283 282 282 282 283 283 282 282
220 218 219 221 223 224 226 226 233 248 248 248 256 263 266 268 268 267 268 269 269 271 273 272 272 270 268 266 264 263 262 261 260 260 260 261 263 264 266 266 267 267 267 268 268 268 269 269 270 270 271 271 272 272 272 272 272 273 273 273 273 273 275 277 279 281 282 282 282 282 282 280 280 281 283 283 284 285 286 285 284 284 285 285 284
222 218 218 221 222 217 214 220 232 237 230 231 243 253 260 264 265 266 268 269 270 274 275 273 271 269 267 265 266 266 265 262 260 258 257 258 259 261 263 265 266 266 267 267 267 268 268 269 269 270 271 271 271 271 271 271 271 272 272 272 272 273 274 276 279 281 281 281 280 280 279 278 280 282 283 284 286 287 289 287 285 285 285 284 283
224 219 216 216 216 211 211 220 234 239 236 234 240 249 257 262 260 261 265 269 273 275 275 274 271 268 265 263 264 267 268 265 261 258 257 256 257 259 260 263 265 266 266 267 268 268 269 271 271 271 271 270 270 269 270 270 271 271 271 271 272 273 274 276 279 280 280 278 277 277 276 278 280 283 284 284 284 286 288 287 286 285 284 282 282
226 223 217 213 212 211 213 218 225 235 239 240 243 246 251 256 257 257 261 266 270 269 263 261 262 263 264 262 260 260 262 262 260 258 256 256 258 259 260 261 263 265 266 267 269 270 271 272 271 271 270 269 268 268 268 269 270 271 271 271 271 271 272 276 279 279 277 275 274 275 276 279 283 285 286 284 282 283 285 285 284 284 284 285 289
230 227 221 216 215 214 213 214 223 235 239 241 243 243 245 251 254 254 254 254 253 252 251 249 250 254 257 258 258 255 255 257 258 258 259 262 264 264 262 261 262 263 264 266 267 269 269 269 268 268 267 267 268 269 270 272 272 273 272 271 271 271 273 277 279 279 277 273 273 275 278 283 286 289 288 285 282 282 282 284 287 290 291 295 298
228 227 224 222 220 218 215 217 226 237 242 243 244 245 246 249 251 251 252 253 251 251 252 251 250 252 254 257 258 256 254 254 257 260 262 265 265 263 262 261 260 261 261 262 263 263 263 263 264 265 265 266 269 272 274 274 273 273 272 272 272 273 275 277 278 277 274 272 274 279 284 289 291 291 290 285 283 284 286 288 293 296 298 301 304
226 227 229 229 227 225 225 226 231 237 243 245 245 247 248 250 251 251 254 257 258 258 258 253 249 249 251 254 256 256 255 255 257 260 262 262 261 259 259 260 260 259 258 257 257 257 257 258 259 261 263 266 269 272 273 273 272 272 273 274 275 275 276 276 275 273 272 275 280 285 290 292 291 290 290 287 286 289 291 294 296 298 300 303 305
226 230 232 233 233 232 233 235 237 239 242 244 246 247 249 250 252 252 255 259 260 260 260 254 250 249 250 251 253 255 257 257 257 257 258 259 258 256 257 259 259 258 256 254 253 253 255 257 258 261 263 266 270 272 273 272 273 274 275 276 276 276 276 275 273 273 276 282 286 289 291 291 289 288 288 288 290 292 293 296 298 298 299 302 304
225 229 233 235 234 235 237 239 241 241 242 244 245 247 249 250 252 252 255 260 261 260 257 254 253 253 253 254 256 257 259 258 257 258 258 257 256 255 255 256 257 257 257 256 255 255 257 259 260 261 264 267 270 272 272 273 273 274 275 276 276 275 275 274 275 277 281 284 285 286 289 289 286 285 285 286 291 294 296 298 298 297 297 299 301
227 230 235 237 236 237 238 241 242 243 244 244 245 247 248 250 252 255 257 259 258 256 257 258 258 258 256 256 257 258 260 260 259 258 257 256 255 254 254 254 255 256 257 257 256 257 259 262 263 264 266 269 271 271 271 271 271 271 273 274 275 275 274 274 275 278 280 281 280 282 286 286 283 281 281 282 286 290 293 295 296 295 295 297 299
232 233 235 238 239 241 243 244 244 245 246 247 247 248 248 250 254 256 255 253 251 252 257 261 262 260 256 254 253 255 259 261 260 259 257 256 255 254 254 254 255 256 256 256 256 258 261 263 265 267 269 270 271 271 271 271 270 271 272 273 273 273 274 274 275 276 277 277 277 278 282 284 279 274 274 278 280 283 286 289 292 293 294 296 297
234 233 235 238 241 243 245 246 246 247 248 250 250 250 250 252 253 252 248 246 247 253 258 261 260 257 254 252 251 253 256 258 260 260 258 257 256 255 255 255 256 257 257 258 259 260 261 261 263 266 267 267 269 270 269 268 268 268 269 269 269 269 270 271 272 273 272 272 273 275 280 283 280 273 272 275 277 279 282 286 289 290 292 294 295
234 233 234 236 239 242 243 246 247 248 248 249 250 251 251 251 250 249 247 247 251 258 262 262 258 257 256 255 255 255 254 254 256 257 257 256 255 255 255 256 255 256 256 257 258 259 259 259 261 263 265 265 266 265 264 264 264 264 263 264 264 264 265 267 268 270 270 270 272 276 280 282 281 276 273 273 274 277 281 284 286 288 290 293 293
234 234 234 234 236 239 241 245 248 249 250 251 250 250 250 251 251 251 252 254 258 263 265 263 259 258 258 258 258 257 252 250 252 255 256 256 255 254 255 255 254 253 252 253 255 256 256 258 260 262 263 263 264 263 262 261 262 262 260 260 259 259 260 261 263 265 268 271 275 278 280 280 279 276 273 272 274 276 280 282 284 286 289 291 291
237 235 234 233 233 235 238 242 244 247 250 252 252 252 253 253 254 256 257 259 261 263 263 261 260 259 259 259 259 258 253 249 250 253 255 256 255 255 255 254 253 252 252 252 253 254 255 256 257 259 259 260 262 262 261 260 261 262 261 259 258 258 258 258 260 264 269 274 277 279 280 279 277 274 272 273 274 276 278 280 283 286 288 289 289
238 237 236 236 235 235 237 239 242 244 246 248 250 252 254 255 256 257 259 260 260 259 258 258 258 259 259 259 259 258 256 251 249 250 253 254 255 255 255 255 255 256 257 256 257 258 259 259 258 258 259 258 259 260 260 259 260 262 261 260 260 260 261 263 266 270 273 276 277 278 278 277 275 272 271 272 272 274 277 280 283 285 286 287 287
236 237 238 239 239 238 237 238 241 244 245 246 248 252 254 255 256 258 259 260 259 257 255 254 255 255 256 257 256 256 254 252 249 247 249 253 255 256 256 257 258 259 260 262 263 263 264 264 263 262 260 259 259 259 259 258 258 259 260 261 263 265 267 270 273 275 277 277 277 276 275 274 273 271 271 271 272 275 278 281 283 284 285 286 287
235 236 238 241 242 243 242 241 242 245 246 246 248 252 255 256 256 257 258 259 258 256 254 253 253 254 255 256 257 256 254 251 250 248 248 251 254 256 257 258 259 260 261 263 264 264 264 264 264 263 261 259 258 258 258 258 257 258 259 260 263 267 270 273 275 277 277 277 277 275 274 273 272 271 271 273 275 277 280 282 283 283 284 285 286
237 238 241 243 245 247 248 248 248 250 251 251 250 252 254 255 257 257 257 256 255 255 255 254 255 258 260 262 262 261 258 255 253 251 251 251 252 253 255 256 257 257 258 258 260 261 261 261 261 260 260 260 259 258 258 258 257 257 258 259 262 265 268 270 272 273 275 275 275 274 273 273 272 272 272 274 276 278 280 281 282 283 284 284 285
241 241 244 246 248 250 251 253 253 254 256 257 257 256 255 256 257 258 258 257 255 255 255 256 257 260 262 263 263 263 261 260 258 256 254 253 253 253 253 253 254 254 254 254 255 256 257 257 257 257 258 259 259 259 259 259 258 258 258 259 261 263 265 267 268 270 271 272 272 272 272 273 273 273 273 274 276 278 279 280 281 281 282 283 284
244 244 246 248 250 251 253 254 255 256 258 259 260 260 260 260 260 260 260 259 258 258 258 258 260 261 262 262 262 261 260 260 260 259 258 256 255 254 253 253 253 254 253 253 253 253 254 255 257 257 258 259 259 260 260 260 260 260 260 261 262 263 265 267 268 270 271 272 272 273 274 274 275 275 275 276 277 278 278 279 280 280 280 281 282
247 246 247 248 250 251 253 254 255 256 257 258 259 259 260 260 260 261 261 260 260 260 261 261 262 264 264 264 264 264 262 261 260 260 260 259 258 256 255 255 255 255 254 254 253 253 254 256 258 259 260 261 261 262 262 262 263 263 264 264 265 266 267 269 270 271 272 273 274 275 276 276 276 276 277 277 277 278 278 278 279 279 279 280 281
253 251 250 250 250 251 252 253 254 255 256 257 258 259 259 260 260 261 261 261 261 262 263 264 265 266 267 267 267 267 267 265 263 262 261 261 261 260 258 257 257 256 255 255 255 254 255 256 258 260 261 262 262 263 263 264 265 265 266 267 267 268 269 270 271 272 273 274 275 276 276 276 276 277 277 277 277 277 277 278 278 278 279 279 280
258 257 256 255 254 253 252 253 253 254 255 256 257 258 259 260 261 261 262 262 263 263 264 265 266 267 268 268 269 269 268 267 266 264 263 262 262 262 261 261 260 259 258 257 256 255 255 255 257 258 260 262 263 263 264 264 265 266 267 268 269 269 270 270 271 271 272 273 273 274 275 276 276 277 277 277 278 278 278 278 279 279 279 279 279
259 259 259 258 258 258 257 256 256 256 256 256 256 257 258 259 260 261 262 263 263 264 264 265 266 267 268 269 269 269 268 268 267 266 265 263 263 262 262 262 262 262 262 261 259 258 256 255 255 256 257 259 261 263 264 264 265 266 267 268 268 269 269 269 269 270 270 271 271 271 272 272 273 274 275 276 277 277 278 279 279 279 280 280 280
259 259 259 259 259 260 260 260 260 260 260 259 259 259 260 261 261 262 263 263 264 265 265 266 267 268 268 269 269 270 269 269 269 269 268 267 266 265 264 263 263 263 263 263 263 262 261 259 258 257 256 256 258 260 262 263 264 265 266 266 267 267 267 267 267 268 268 268 268 269 269 270 271 271 272 273 274 275 276 277 278 279 279 280 281
259 259 260 259 259 260 261 261 262 262 262 263 263 263 263 263 263 263 264 264 264 265 266 266 266 267 268 268 269 269 270 270 270 270 269 269 269 268 268 267 267 266 266 265 266 266 265 264 263 263 261 259 258 259 261 263 264 266 267 267 267 267 267 267 266 266 266 266 266 267 268 268 269 270 271 272 273 273 274 275 276 277 278 279 279
259 260 261 261 262 262 262 263 263 263 264 264 265 265 265 266 266 266 266 266 266 266 266 266 266 267 267 267 268 268 269 269 270 270 270 270 269 269 269 269 269 269 269 269 269 269 269 268 268 268 267 267 265 264 263 264 265 267 269 269 270 271 270 269 268 267 267 267 267 267 268 269 269 270 271 271 272 273 273 274 275 275 276 277 277
260 261 262 263 264 264 264 264 264 264 265 266 266 267 267 268 268 268 269 269 269 268 268 268 268 268 268 268 268 268 268 268 269 269 270 270 270 269 269 269 269 269 269 269 269 269 269 269 269 269 270 270 270 269 268 267 267 268 269 270 271 272 272 272 271 270 269 269 269 269 270 270 271 271 272 272 273 273 274 274 275 275 275 275 275
262 262 262 263 263 264 264 265 265 265 266 266 266 267 267 268 268 269 269 269 269 269 270 270 270 270 269 269 269 269 269 269 268 268 269 269 269 269 269 269 269 269 269 268 268 268 268 268 269 269 269 269 270 270 271 271 270 270 270 271 271 272 272 273 272 272 271 272 272 272 272 271 271 272 272 273 274 274 274 275 275 275 275 274 274
263 262 262 263 263 264 265 265 266 266 266 266 266 266 267 267 268 268 269 269 269 269 269 270 270 270 269 269 269 269 269 268 268 268 268 268 268 269 269 268 268 268 268 268 268 268 267 267 267 267 267 268 268 269 270 270 271 271 271 271 272 272 272 272 273 273 274 274 273 273 272 271 271 272 272 273 274 275 275 275 275 275 275 275 274
Height
10689 10683 10676 10678 10681 10680 10679 10680 10678 10680 10685 10686 10686 10688 10690 10692 10693 10693 10694 10693 10692 10691 10691 10691 10691 10691 10692 10693 10693 10693 10692 10693 10694 10696 10696 10697 10698 10699 10699 10700 10700 10700 10700 10700 10701 10701 10702 10703 10703 10704 10704 10704 10704 10704 10704 10704 10704 10703 10701 10700 10699 10698 10697 10697 10696 10696 10696 10698 10700 10702 10701 10698 10695 10694 10693 10694 10696 10696 10695 10695 10694 10694 10693 10692 10691
10676 10672 10667 10669 10671 10671 10672 10674 10676 10679 10683 10682 10682 10683 10686 10687 10689 10689 10689 10688 10687 10687 10687 10687 10687 10686 10687 10689 10689 10689 10689 10688 10689 10689 10690 10690 10691 10692 10693 10694 10695 10696 10697 10696 10696 10696 10698 10699 10699 10700 10700 10701 10701 10701 10701 10701 10700 10699 10698 10696 10695 10694 10693 10693 10692 10692 10693 10694 10696 10697 10696 10694 10692 10691 10690 10690 10693 10694 10693 10692 10692 10691 10690 10689 10689
10664 10663 10661 10661 10662 10664 10668 10671 10674 10676 10678 10679 10679 10679 10681 10682 10684 10684 10683 10683 10683 10682 10682 10682 10681 10681 10682 10684 10685 10685 10685 10684 10684 10684 10684 10685 10685 10686 10686 10688 10689 10691 10692 10692 10692 10692 10694 10694 10695 10696 10696 10697 10697 10698 10698 10697 10697 10695 10694 10692 10691 10690 10690 10689 10688 10688 10689 10691 10692 10693 10692 10691 10690 10689 10688 10687 10688 10690 10690 10689 10689 10689 10688 10687 10686
10656 10655 10656 10656 10657 10660 10664 10667 10670 10672 10673 10675 10675 10675 10676 10677 10679 10679 10678 10678 10678 10679 10678 10676 10675 10676 10678 10679 10680 10680 10681 10681 10681 10681 10680 10680 10680 10681 10681 10682 10683 10684 10686 10687 10687 10688 10690 10690 10691 10691 10692 10692 10693 10693 10694 10693 10692 10691 10690 10688 10687 10687 10686 10685 10684 10683 10684 10686 10688 10688 10687 10687 10687 10687 10686 10685 10685 10686 10687 10686 10686 10685 10684 10684 10684
10648 10650 10652 10652 10653 10658 10662 10663 10665 10668 10670 10670 10670 10671 10672 10673 10674 10675 10674 10673 10673 10674 10674 10671 10670 10672 10674 10675 10675 10676 10677 10677 10678 10677 10677 10677 10677 10678 10678 10679 10679 10679 10680 10681 10682 10684 10685 10685 10686 10687 10687 10688 10688 10688 10689 10688 10688 10687 10685 10684 10683 10682 10681 10680 10679 10679 10679 10680 10682 10683 10682 10682 10683 10683 10683 10683 10682 10682 10682 10682 10682 10682 10681 10680 10680
10645 10648 10651 10651 10653 10656 10658 10658 10660 10664 10666 10665 10666 10666 10667 10668 10670 10671 10671 10670 10670 10670 10670 10667 10666 10669 10670 10671 10672 10672 10673 10674 10674 10674 10674 10674 10675 10675 10676 10676 10676 10676 10677 10677 10678 10679 10680 10681 10682 10682 10683 10683 10683 10684 10684 10684 10683 10682 10681 10680 10678 10677 10676 10675 10675 10674 10674 10675 10676 10677 10678 10678 10679 10679 10680 10679 10679 10678 10678 10678 10678 10678 10677 10676 10676
10642 10646 10649 10650 10651 10651 10651 10653 10657 10660 10661 10661 10661 10662 10664 10665 10666 10666 10667 10667 10667 10668 10667 10664 10663 10666 10667 10667 10668 10668 10669 10669 10670 10671 10671 10672 10672 10672 10672 10673 10673 10674 10674 10674 10675 10676 10676 10677 10677 10678 10678 10678 10679 10679 10679 10679 10679 10678 10677 10676 10674 10672 10671 10670 10670 10670 10669 10670 10670 10671 10673 10674 10674 10675 10675 10675 10675 10674 10673 10673 10673 10673 10673 10671 10671
10638 10642 10644 10645 10645 10644 10643 10647 10653 10655 10655 10656 10656 10657 10659 10661 10661 10662 10663 10664 10664 10665 10665 10663 10661 10662 10663 10664 10665 10665 10665 10666 10667 10667 10668 10668 10668 10669 10669 10669 10670 10670 10670 10671 10671 10672 10673 10673 10673 10674 10674 10674 10674 10674 10674 10674 10674 10673 10672 10671 10669 10668 10667 10666 10665 10665 10665 10665 10665 10666 10667 10669 10669 10670 10670 10671 10671 10670 10669 10668 10668 10668 10668 10666 10665
10634 10636 10637 10639 10639 10636 10637 10642 10646 10648 10650 10650 10651 10653 10655 10656 10658 10658 10659 10660 10660 10661 10661 10660 10659 10659 10660 10661 10662 10662 10662 10662 10663 10663 10663 10664 10664 10664 10665 10665 10666 10666 10666 10666 10667 10668 10669 10669 10669 10669 10669 10669 10669 10669 10669 10669 10669 10668 10667 10666 10665 10663 10662 10662 10661 10661 10661 10661 10661 10661 10662 10663 10664 10664 10665 10665 10665 10665 10663 10662 10661 10661 10662 10661 10660
10630 10631 10632 10633 10632 10630 10632 10637 10640 10643 10645 10645 10646 10648 10650 10652 10653 10654 10655 10655 10655 10656 10656 10656 10655 10655 10656 10658 10658 10658 10658 10659 10659 10658 10659 10659 10660 10660 10660 10661 10661 10661 10661 10661 10662 10664 10665 10664 10664 10664 10664 10664 10664 10664 10665 10665 10665 10664 10663 10661 10660 10659 10658 10658 10657 10657 10657 10657 10657 10657 10657 10658 10659 10659 10659 10659 10660 10659 10658 10657 10655 10655 10655 10655 10655
10625 10626 10627 10628 10627 10627 10629 10632 10635 10639 10641 10641 10642 10644 10645 10647 10648 10649 10650 10650 10651 10651 10651 10652 10651 10651 10652 10653 10654 10654 10654 10655 10655 10654 10654 10654 10655 10655 10655 10656 10656 10657 10657 10657 10658 10659 10660 10660 10660 10660 10660 10660 10660 10660 10660 10661 10660 10660 10658 10657 10656 10656 10655 10654 10654 10653 10653 10653 10653 10653 10653 10654 10654 10654 10654 10654 10655 10654 10653 10652 10650 10648 10648 10648 10649
10621 10621 10621 10622 10623 10623 10625 10627 10631 10634 10636 10637 10638 10639 10640 10641 10642 10644 10645 10645 10646 10646 10646 10646 10646 10647 10648 10648 10649 10650 10650 10650 10650 10650 10650 10650 10650 10650 10650 10651 10652 10652 10653 10653 10654 10655 10656 10656 10655 10655 10655 10655 10656 10656 10656 10656 10656 10656 10655 10654 10653 10653 10652 10652 10651 10650 10650 10650 10649 10649 10649 10649 10649 10649 10649 10650 10650 10650 10648 10646 10644 10643 10642 10642 10643
10615 10615 10616 10619 10619 10620 10622 10623 10626 10629 10631 10633 10635 10635 10636 10636 10637 10638 10639 10639 10640 10640 10640 10640 10640 10641 10642 10643 10644 10644 10645 10645 10645 10645 10645 10645 10645 10645 10645 10646 10647 10648 10648 10648 10649 10650 10651 10651 10651 10651 10651 10651 10651 10652 10652 10652 10652 10652 10652 10651 10651 10650 10650 10649 10648 10648 10647 10647 10646 10645 10645 10645 10645 10645 10645 10645 10646 10645 10643 10641 10640 10639 10638 10637 10637
10611 10611 10613 10616 10616 10617 10618 10619 10621 10624 10627 10629 10631 10631 10632 10633 10633 10634 10634 10634 10634 10634 10634 10635 10635 10635 10636 10637 10638 10639 10639 10640 10640 10640 10640 10640 10640 10640 10641 10641 10642 10642 10643 10643 10644 10645 10646 10646 10646 10646 10646 10646 10647 10647 10647 10648 10648 10648 10649 10649 10648 10647 10647 10646 10645 10644 10644 10643 10642 10641 10641 10641 10641 10641 10641 10642 10642 10641 10639 10637 10636 10635 10635 10634 10633
10607 10607 10610 10612 10612 10613 10613 10615 10617 10620 10622 10624 10626 10627 10628 10629 10629 10629 10629 10630 10629 10629 10629 10629 10629 10630 10631 10632 10633 10634 10634 10634 10634 10634 10634 10634 10634 10635 10636 10636 10637 10637 10638 10638 10639 10640 10641 10641 10641 10641 10642 10642 10642 10642 10642 10643 10643 10644 10645 10645 10644 10644 10643 10642 10642 10641 10640 10639 10638 10637 10637 10638 10638 10638 10638 10638 10639 10638 10636 10634 10633 10633 10632 10631 10630
10602 10603 10605 10606 10607 10608 10609 10612 10615 10617 10619 10620 10622 10623 10624 10624 10624 10624 10624 10625 10625 10624 10624 10624 10624 10625 10626 10626 10627 10628 10628 10628 10628 10629 10629 10629 10629 10629 10630 10631 10631 10632 10632 10633 10633 10634 10635 10635 10636 10636 10636 10636 10637 10637 10637 10638 10638 10639 10640 10640 10640 10639 10639 10638 10638 10637 10637 10636 10635 10635 10634 10634 10634 10634 10634 10635 10635 10635 10633 10632 10630 10630 10630 10629 10628
10597 10599 10600 10601 10602 10604 10607 10609 10612 10614 10616 10617 10619 10620 10620 10620 10619 10619 10619 10620 10619 10619 10619 10619 10618 10619 10620 10620 10621 10622 10622 10623 10623 10623 10623 10623 10623 10623 10624 10625 10626 10626 10627 10627 10628 10628 10629 10630 10630 10630 10630 10631 10631 10632 10632 10633 10633 10634 10634 10635 10635 10635 10634 10634 10634 10633 10633 10633 10632 10631 10630 10629 10629 10629 10630 10631 10631 10631 10630 10628 10627 10626 10626 10626 10625
10593 10595 10596 10597 10598 10601 10604 10607 10609 10612 10614 10616 10616 10615 10614 10613 10612 10613 10613 10614 10614 10613 10613 10613 10613 10614 10614 10614 10615 10616 10616 10617 10617 10618 10618 10617 10617 10617 10618 10619 10620 10620 10621 10621 10622 10623 10623 10624 10624 10625 10625 10625 10626 10626 10626 10627 10628 10628 10629 10629 10630 10630 10630 10630 10629 10629 10628 10628 10627 10626 10625 10624 10624 10624 10625 10626 10626 10626 10626 10624 10623 10623 10623 10622 10620
10589 10590 10592 10593 10595 10598 10601 10604 10606 10609 10614 10617 10615 10610 10607 10605 10605 10605 10605 10606 10607 10607 10608 10608 10608 10608 10608 10609 10610 10610 10610 10611 10611 10612 10611 10611 10610 10611 10612 10612 10613 10614 10615 10615 10616 10617 10617 10618 10618 10619 10619 10619 10619 10620 10620 10621 10622 10623 10624 10624 10625 10625 10625 10625 10624 10624 10623 10622 10621 10620 10620 10619 10618 10618 10619 10620 10620 10621 10621 10619 10618 10618 10618 10618 10617
10584 10585 10587 10589 10592 10595 10598 10600 10602 10606 10611 10615 10613 10608 10601 10597 10597 10597 10597 10598 10599 10601 10602 10603 10603 10603 10604 10604 10605 10605 10605 10605 10606 10606 10606 10604 10604 10604 10605 10606 10607 10608 10609 10610 10610 10611 10611 10612 10612 10613 10613 10612 10613 10613 10614 10615 10616 10617 10618 10619 10619 10620 10619 10619 10619 10618 10617 10616 10615 10614 10613 10613 10612 10612 10612 10613 10614 10615 10615 10614 10612 10611 10612 10612 10612
10579 10581 10583 10585 10589 10592 10595 10596 10597 10601 10606 10610 10610 10604 10594 10588 10589 10591 10592 10594 10594 10596 10598 10598 10599 10599 10598 10599 10598 10599 10599 10600 10600 10601 10600 10598 10598 10598 10599 10600 10601 10602 10603 10604 10605 10605 10605 10606 10606 10606 10606 10606 10607 10607 10608 10609 10611 10612 10613 10613 10613 10613 10613 10613 10613 10612 10611 10610 10609 10608 10607 10606 10606 10605 10605 10605 10606 10608 10609 10608 10606 10605 10605 10605 10605
10575 10577 10580 10583 10586 10589 10591 10592 10593 10596 10599 10601 10601 10594 10585 10583 10585 10586 10588 10591 10592 10594 10595 10595 10594 10594 10593 10592 10591 10591 10592 10593 10594 10594 10594 10593 10592 10592 10594 10595 10595 10597 10598 10598 10599 10600 10600 10599 10600 10600 10600 10600 10601 10601 10602 10604 10605 10606 10606 10606 10606 10606 10606 10607 10607 10606 10606 10605 10603 10602 10601 10600 10600 10599 10599 10598 10598 10600 10601 10600 10600 10600 10599 10598 10599
10571 10574 10576 10579 10583 10585 10587 10589 10590 10591 10590 10590 10588 10583 10578 10578 10580 10583 10585 10588 10592 10594 10594 10592 10589 10586 10585 10585 10584 10584 10585 10586 10587 10588 10588 10588 10587 10587 10589 10590 10590 10592 10593 10593 10594 10594 10594 10593 10593 10593 10594 10594 10594 10595 10596 10597 10598 10599 10599 10599 10599 10600 10601 10601 10601 10601 10600 10598 10598 10596 10595 10595 10594 10594 10593 10592 10591 10592 10593 10592 10593 10593 10593 10592 10592
10567 10569 10572 10575 10578 10580 10581 10583 10584 10583 10581 10580 10579 10576 10573 10572 10575 10581 10585 10589 10595 10595 10592 10589 10582 10577 10575 10576 10576 10578 10579 10579 10580 10581 10582 10583 10582 10583 10584 10585 10586 10586 10587 10587 10588 10589 10588 10588 10587 10587 10587 10587 10587 10588 10589 10590 10591 10591 10592 10592 10593 10594 10594 10595 10595 10594 10593 10592 10591 10590 10589 10588 10588 10587 10587 10585 10585 10585 10585 10584 10585 10587 10588 10587 10586
10562 10564 10567 10569 10572 10574 10575 10576 10577 10576 10574 10574 10572 10570 10568 10568 10572 10578 10581 10586 10590 10588 10583 10579 10574 10570 10568 10568 10569 10571 10573 10573 10574 10575 10576 10577 10577 10577 10577 10579 10580 10580 10581 10581 10582 10583 10582 10582 10582 10581 10580 10580 10579 10580 10582 10583 10584 10584 10585 10586 10586 10587 10587 10588 10587 10586 10586 10585 10584 10583 10583 10582 10581 10579 10579 10578 10577 10578 10578 10577 10578 10581 10582 10581 10580
10553 10556 10560 10561 10564 10567 10568 10569 10569 10568 10567 10566 10564 10563 10563 10564 10567 10570 10572 10576 10579 10577 10574 10572 10568 10567 10566 10564 10564 10566 10568 10569 10569 10569 10570 10570 10570 10569 10569 10572 10574 10574 10575 10575 10576 10577 10577 10577 10577 10574 10573 10573 10574 10575 10576 10576 10576 10577 10578 10579 10579 10579 10580 10580 10580 10579 10578 10577 10576 10576 10575 10574 10573 10571 10571 10570 10571 10572 10572 10570 10571 10572 10573 10573 10572
10545 10548 10550 10551 10554 10558 10561 10562 10562 10560 10558 10558 10557 10557 10557 10558 10560 10562 10564 10566 10568 10569 10567 10565 10563 10563 10563 10561 10561 10561 10562 10563 10563 10563 10563 10564 10564 10562 10561 10564 10567 10568 10569 10569 10570 10571 10571 10571 10569 10567 10568 10568 10569 10569 10569 10568 10568 10569 10570 10571 10571 10571 10572 10574 10573 10571 10569 10569 10568 10568 10567 10565 10564 10563 10562 10562 10563 10565 10565 10564 10563 10563 10564 10564 10564
10539 10539 10539 10540 10544 10549 10553 10554 10552 10551 10550 10550 10550 10551 10551 10553 10554 10557 10558 10559 10560 10561 10560 10559 10559 10559 10558 10556 10555 10555 10555 10556 10557 10557 10556 10557 10557 10555 10555 10558 10560 10561 10563 10563 10564 10564 10564 10564 10563 10562 10562 10562 10562 10561 10562 10562 10561 10562 10563 10563 10562 10564 10565 10566 10565 10564 10562 10561 10560 10559 10559 10558 10557 10555 10554 10552 10554 10556 10557 10557 10555 10554 10554 10554 10555
10533 10533 10531 10532 10535 10539 10542 10542 10542 10542 10542 10542 10544 10545 10546 10547 10548 10551 10552 10552 10552 10553 10553 10553 10554 10554 10553 10552 10551 10549 10548 10549 10550 10551 10551 10550 10549 10549 10550 10551 10552 10554 10555 10556 10557 10557 10556 10556 10556 10556 10556 10555 10555 10554 10554 10555 10556 10556 10556 10555 10554 10556 10557 10557 10557 10556 10555 10555 10554 10552 10551 10551 10549 10548 10547 10545 10544 10544 10545 10546 10546 10546 10545 10545 10546
10527 10527 10525 10525 10528 10530 10531 10532 10533 10533 10533 10534 10537 10539 10540 10541 10542 10543 10544 10544 10545 10546 10545 10546 10547 10548 10548 10547 10546 10543 10541 10542 10544 10544 10545 10543 10541 10542 10543 10543 10544 10546 10548 10549 10549 10548 10548 10548 10549 10549 10549 10549 10549 10548 10548 10548 10549 10549 10548 10548 10547 10547 10549 10550 10550 10549 10548 10548 10547 10546 10545 10544 10543 10541 10541 10540 10539 10537 10536 10537 10537 10537 10537 10537 10537
10520 10520 10519 10519 10521 10522 10523 10523 10524 10524 10525 10527 10530 10532 10533 10535 10537 10537 10537 10537 10537 10538 10538 10539 10540 10541 10541 10540 10540 10538 10536 10536 10536 10537 10538 10537 10535 10535 10535 10535 10536 10539 10540 10541 10542 10541 10541 10541 10541 10542 10541 10541 10541 10541 10540 10541 10541 10541 10541 10541 10541 10540 10540 10542 10543 10543 10542 10541 10540 10539 10538 10539 10539 10538 10536 10536 10535 10534 10532 10531 10530 10529 10529 10529 10529
10512 10512 10513 10513 10514 10514 10515 10515 10516 10517 10518 10519 10522 10524 10526 10528 10530 10529 10529 10529 10530 10530 10532 10533 10534 10534 10534 10535 10535 10534 10532 10530 10529 10529 10530 10531 10530 10529 10530 10529 10530 10532 10533 10533 10534 10534 10534 10534 10534 10533 10533 10533 10533 10533 10533 10533 10534 10534 10534 10534 10535 10535 10534 10534 10534 10535 10536 10535 10534 10533 10533 10533 10534 10534 10532 10531 10529 10528 10527 10525 10524 10522 10521 10521 10521
10504 10505 10506 10507 10507 10507 10508 10507 10507 10509 10510 10512 10514 10516 10518 10520 10521 10521 10521 10522 10523 10523 10524 10526 10527 10527 10528 10529 10530 10530 10528 10525 10523 10522 10522 10522 10523 10523 10524 10525 10525 10524 10524 10525 10525 10525 10525 10525 10526 10526 10526 10526 10527 10526 10526 10526 10526 10526 10527 10527 10528 10528 10528 10528 10527 10527 10529 10529 10528 10528 10527 10527 10527 10527 10526 10525 10523 10521 10519 10518 10517 10515 10514 10513 10513
10497 10498 10498 10499 10500 10501 10500 10499 10499 10500 10501 10503 10505 10507 10509 10511 10512 10514 10515 10515 10516 10516 10516 10517 10518 10520 10522 10522 10523 10524 10523 10521 10518 10516 10515 10515 10515 10515 10517 10519 10519 10518 10518 10518 10517 10517 10517 10518 10518 10518 10519 10519 10519 10519 10519 10518 10518 10519 10520 10521 10521 10521 10521 10521 10520 10521 10522 10522 10521 10520 10520 10520 10519 10518 10518 10517 10516 10514 10512 10510 10509 10507 10506 10506 10505
10490 10490 10491 10491 10492 10493 10492 10492 10492 10492 10492 10494 10496 10498 10500 10502 10504 10506 10507 10508 10510 10511 10510 10510 10511 10513 10515 10516 10516 10517 10518 10516 10514 10512 10511 10510 10509 10509 10511 10513 10513 10512 10512 10511 10509 10508 10509 10510 10509 10510 10511 10511 10511 10512 10512 10511 10511 10511 10512 10513 10514 10513 10512 10513 10514 10516 10516 10515 10512 10511 10512 10513 10511 10509 10509 10510 10509 10507 10505 10502 10500 10499 10499 10498 10497
10484 10484 10484 10483 10483 10483 10484 10485 10486 10485 10483 10485 10488 10490 10492 10494 10496 10498 10500 10501 10503 10504 10504 10504 10505 10507 10508 10508 10509 10510 10511 10510 10509 10507 10507 10506 10505 10506 10507 10508 10507 10505 10504 10502 10501 10501 10501 10501 10500 10501 10503 10504 10504 10504 10505 10504 10504 10504 10505 10507 10507 10504 10503 10504 10507 10508 10508 10506 10503 10502 10503 10503 10502 10501 10501 10501 10501 10500 10497 10495 10492 10491 10490 10490 10488
10476 10476 10474 10474 10474 10474 10475 10479 10479 10476 10475 10479 10482 10483 10484 10486 10488 10490 10492 10494 10495 10495 10496 10497 10499 10500 10501 10501 10502 10502 10503 10502 10500 10500 10501 10500 10500 10500 10500 10500 10500 10497 10495 10495 10496 10496 10495 10493 10493 10493 10494 10495 10495 10496 10497 10497 10497 10497 10498 10499 10498 10495 10494 10495 10497 10497 10497 10496 10495 10495 10495 10495 10494 10493 10493 10493 10493 10492 10490 10487 10484 10482 10481 10479 10478
10468 10468 10467 10466 10467 10466 10468 10472 10472 10469 10469 10473 10477 10477 10477 10478 10479 10481 10484 10485 10485 10485 10486 10488 10490 10492 10493 10493 10494 10495 10495 10494 10492 10492 10493 10492 10492 10492 10492 10492 10493 10491 10489 10489 10489 10489 10488 10487 10485 10484 10485 10486 10486 10487 10487 10488 10489 10489 10490 10492 10490 10486 10485 10486 10487 10487 10487 10486 10486 10486 10486 10486 10486 10486 10485 10485 10484 10483 10481 10477 10474 10472 10469 10468 10467
10462 10463 10462 10461 10461 10461 10462 10464 10465 10462 10462 10465 10468 10470 10470 10470 10471 10473 10475 10476 10476 10475 10476 10478 10480 10482 10482 10483 10483 10484 10485 10484 10483 10484 10484 10482 10482 10483 10484 10484 10485 10484 10483 10482 10481 10481 10480 10478 10477 10477 10477 10477 10477 10477 10478 10478 10478 10479 10481 10482 10481 10479 10478 10478 10479 10480 10480 10478 10476 10475 10475 10476 10477 10477 10477 10476 10475 10473 10471 10468 10465 10463 10460 10457 10455
10455 10456 10455 10453 10454 10454 10454 10455 10455 10454 10454 10455 10457 10460 10461 10462 10462 10463 10465 10465 10466 10465 10466 10468 10470 10471 10471 10471 10471 10472 10473 10473 10473 10474 10475 10473 10472 10473 10474 10475 10475 10474 10474 10474 10473 10473 10471 10468 10468 10468 10468 10467 10467 10467 10467 10467 10467 10468 10469 10471 10471 10471 10470 10470 10470 10470 10470 10469 10468 10467 10466 10467 10467 10467 10467 10466 10465 10464 10462 10460 10457 10455 10452 10448 10445
10446 10447 10446 10445 10445 10445 10445 10445 10445 10445 10446 10447 10447 10448 10449 10451 10452 10452 10453 10453 10453 10454 10455 10456 10458 10459 10459 10458 10458 10460 10461 10462 10463 10463 10463 10463 10462 10462 10463 10464 10464 10464 10463 10464 10465 10465 10463 10460 10459 10459 10458 10458 10458 10457 10457 10456 10456 10455 10457 10459 10460 10461 10461 10460 10459 10457 10457 10456 10456 10456 10456 10456 10456 10456 10455 10454 10453 10452 10451 10450 10448 10445 10443 10440 10437
10437 10438 10437 10437 10437 10436 10435 10435 10435 10435 10435 10436 10436 10437 10438 10439 10440 10440 10439 10439 10440 10442 10443 10443 10443 10444 10445 10445 10445 10446 10448 10451 10453 10452 10451 10450 10450 10450 10450 10451 10451 10452 10452 10453 10456 10457 10455 10453 10450 10448 10448 10448 10447 10447 10445 10444 10443 10443 10444 10446 10448 10449 10451 10450 10447 10444 10443 10443 10443 10443 10444 10443 10442 10442 10442 10441 10441 10440 10439 10438 10436 10435 10433 10431 10429
10426 10428 10428 10427 10427 10427 10426 10425 10425 10424 10424 10424 10425 10425 10426 10428 10429 10428 10427 10427 10428 10429 10429 10429 10429 10430 10431 10431 10431 10433 10434 10436 10438 10440 10440 10438 10437 10437 10438 10438 10438 10439 10439 10441 10443 10445 10446 10444 10441 10438 10436 10435 10435 10435 10433 10431 10430 10430 10431 10432 10434 10437 10439 10438 10435 10433 10431 10431 10431 10430 10430 10429 10429 10428 10428 10428 10427 10427 10426 10425 10424 10423 10422 10420 10419
10415 10417 10417 10416 10416 10416 10415 10415 10415 10415 10415 10415 10415 10415 10416 10417 10418 10418 10417 10416 10417 10418 10418 10417 10417 10417 10417 10417 10418 10419 10421 10421 10423 10425 10426 10425 10424 10424 10424 10425 10425 10425 10426 10427 10428 10430 10433 10434 10433 10430 10427 10424 10422 10421 10420 10418 10417 10417 10417 10418 10421 10424 10425 10425 10423 10422 10421 10421 10422 10420 10419 10418 10417 10416 10415 10414 10413 10412 10411 10410 10410 10409 10409 10408 10407
10404 10405 10405 10405 10404 10404 10404 10404 10405 10406 10406 10406 10407 10406 10407 10407 10407 10407 10407 10406 10406 10407 10407 10407 10406 10405 10405 10404 10404 10405 10406 10407 10408 10409 10410 10412 10411 10410 10410 10412 10413 10412 10412 10413 10413 10414 10418 10421 10421 10421 10421 10417 10411 10408 10406 10405 10405 10405 10405 10405 10407 10410 10411 10411 10410 10410 10410 10411 10412 10411 10410 10409 10408 10407 10405 10404 10402 10400 10398 10396 10395 10394 10394 10394 10393
10393 10393 10393 10393 10393 10393 10394 10395 10395 10395 10395 10395 10395 10396 10396 10395 10395 10396 10396 10395 10395 10395 10396 10396 10396 10394 10393 10392 10391 10391 10392 10393 10393 10394 10395 10396 10397 10396 10396 10397 10399 10400 10399 10399 10398 10398 10402 10405 10407 10408 10409 10407 10404 10400 10396 10393 10393 10392 10392 10393 10394 10395 10397 10397 10397 10397 10398 10398 10399 10400 10400 10400 10399 10398 10397 10396 10394 10391 10388 10385 10383 10382 10381 10380 10378
10382 10381 10380 10380 10381 10383 10384 10385 10384 10383 10382 10382 10382 10383 10383 10383 10383 10383 10384 10384 10384 10383 10384 10384 10384 10384 10383 10381 10380 10379 10379 10379 10379 10379 10379 10380 10381 10381 10381 10381 10384 10385 10385 10386 10385 10384 10385 10389 10391 10390 10388 10390 10395 10394 10388 10385 10384 10382 10379 10378 10379 10380 10381 10381 10381 10382 10383 10385 10386 10387 10388 10388 10388 10387 10386 10385 10384 10381 10378 10375 10373 10372 10371 10369 10366
10371 10370 10368 10367 10370 10373 10373 10372 10372 10371 10370 10369 10369 10370 10370 10370 10369 10369 10369 10371 10371 10371 10371 10371 10371 10371 10371 10370 10370 10369 10368 10367 10366 10365 10365 10365 10366 10366 10366 10367 10368 10369 10370 10370 10371 10371 10370 10372 10375 10374 10370 10372 10379 10379 10375 10377 10378 10373 10367 10365 10366 10365 10364 10363 10363 10365 10367 10369 10371 10373 10374 10375 10375 10374 10372 10371 10371 10369 10366 10364 10363 10363 10362 10359 10356
10359 10360 10358 10357 10358 10360 10360 10359 10359 10359 10358 10358 10358 10357 10357 10356 10355 10354 10355 10356 10356 10356 10356 10356 10356 10357 10357 10356 10356 10356 10356 10356 10355 10353 10352 10351 10350 10350 10352 10353 10354 10355 10355 10356 10357 10358 10357 10356 10358 10360 10359 10359 10360 10358 10358 10364 10367 10363 10356 10355 10355 10352 10347 10345 10346 10348 10350 10353 10356 10358 10359 10359 10359 10359 10357 10357 10357 10355 10353 10352 10351 10351 10351 10349 10345
10347 10350 10350 10347 10345 10345 10346 10346 10346 10347 10347 10347 10346 10345 10344 10344 10342 10341 10341 10341 10341 10340 10340 10340 10341 10341 10340 10341 10342 10342 10342 10343 10343 10342 10340 10338 10336 10336 10338 10339 10339 10339 10340 10341 10342 10344 10344 10344 10345 10346 10347 10347 10346 10343 10343 10347 10351 10350 10346 10343 10343 10340 10334 10330 10330 10331 10334 10338 10341 10342 10343 10343 10344 10344 10343 10343 10344 10342 10340 10339 10339 10338 10336 10335 10333
10335 10337 10336 10335 10334 10334 10334 10333 10333 10333 10333 10333 10332 10332 10332 10331 10329 10328 10327 10327 10326 10326 10326 10326 10325 10324 10324 10325 10327 10327 10327 10327 10327 10327 10328 10326 10324 10322 10323 10324 10325 10324 10325 10325 10326 10327 10329 10330 10331 10332 10333 10334 10333 10332 10331 10331 10334 10335 10333 10331 10330 10327 10321 10318 10316 10316 10320 10324 10324 10324 10326 10328 10330 10331 10331 10332 10331 10329 10327 10327 10326 10324 10321 10319 10317